Theta_e
341 340 340 340 340 339 340 340 340 339 339 339 338 337 338 336 336 336 334 335 335 335 335 335 335 334 333 334 337 337 336 334 330 327 326 325 324 323 322 321 319 316 312 309 310 312 311 311 312 313 316 317 316 314 312 310 309 307 303 300 300 307 311 309 309 309 311 313 311 312 310 310 311 309 309 311 312 314 318 320 321 321 322 322 322
340 340 340 340 339 339 340 340 339 339 339 339 338 338 338 338 337 335 334 335 335 334 334 334 334 334 332 332 334 336 336 334 330 327 326 325 324 322 320 319 316 313 310 303 301 303 302 302 304 306 312 315 316 314 311 310 311 311 309 305 306 311 313 313 314 312 313 313 312 313 312 312 312 310 310 312 312 312 314 315 317 319 319 319 320
340 340 340 340 339 340 341 340 340 340 340 339 339 338 338 338 336 335 334 335 335 334 334 333 332 333 332 331 331 332 334 332 329 328 326 324 323 320 318 317 315 312 310 303 298 299 300 301 301 303 309 313 315 315 313 310 310 311 312 310 310 313 314 314 314 312 313 314 313 313 312 312 312 312 311 312 313 312 312 311 310 313 314 315 316
339 339 340 340 339 340 341 340 340 340 340 339 339 338 337 337 336 335 335 335 335 334 333 331 330 330 330 330 330 329 329 329 328 327 326 325 322 319 316 314 313 310 309 305 300 301 303 305 304 302 306 310 312 315 314 310 309 311 313 312 312 313 313 313 313 312 313 313 312 312 312 312 311 312 312 312 312 312 313 312 310 311 312 311 311
339 339 340 339 339 340 340 341 340 340 340 340 339 338 337 336 335 335 335 334 334 331 330 329 328 328 328 328 328 327 326 325 324 323 322 322 319 315 313 311 310 309 308 306 304 304 305 307 308 305 303 305 308 310 311 311 310 312 313 313 312 313 313 313 313 313 313 313 313 312 312 312 311 311 312 311 312 311 311 313 313 313 312 311 310
339 339 338 338 339 339 340 340 340 340 340 339 338 337 336 335 335 335 334 333 332 330 329 328 327 326 326 325 325 325 323 322 321 319 317 316 314 312 310 309 308 308 307 307 307 307 307 307 308 307 303 302 303 305 309 311 312 312 312 312 311 311 312 312 312 313 312 312 313 313 312 312 311 311 311 310 311 312 311 311 313 313 312 311 311
339 339 337 337 337 337 339 340 339 339 338 337 335 336 335 335 335 334 333 332 330 330 329 328 326 325 324 324 323 321 320 320 318 317 316 314 312 309 308 309 307 307 307 307 308 308 307 307 307 308 306 303 302 304 308 311 312 312 312 310 310 310 310 311 311 312 312 312 313 313 311 311 311 310 310 310 311 311 310 311 312 312 312 312 313
340 339 337 337 336 337 338 338 338 338 336 336 335 334 334 334 335 334 332 331 329 328 328 327 325 323 323 322 321 320 319 318 317 316 315 313 308 305 305 307 306 305 305 304 306 307 307 307 306 306 306 306 305 305 306 309 309 311 310 309 308 308 309 309 310 311 311 311 312 312 311 310 310 310 309 310 311 311 310 311 310 310 312 313 313
340 339 338 337 337 338 338 337 337 337 335 335 335 334 333 332 333 334 332 330 329 327 326 325 324 322 321 320 319 318 317 316 316 314 312 310 308 307 306 305 303 302 302 301 302 305 306 307 307 306 306 307 307 307 307 308 308 308 308 307 307 308 309 309 309 310 311 311 312 311 311 309 309 310 310 310 311 310 310 310 310 310 312 312 312
339 339 338 338 337 337 337 336 336 335 334 334 334 333 333 332 331 332 331 329 328 326 325 323 322 321 319 318 317 316 315 314 313 311 310 310 310 311 309 307 305 305 304 302 301 301 301 303 304 304 306 307 308 309 308 308 307 307 307 307 307 307 308 309 309 310 311 311 311 311 310 309 308 309 310 311 310 309 309 309 310 311 312 311 312
339 338 337 337 337 336 336 335 334 334 334 334 333 331 332 332 329 329 330 328 327 326 324 323 321 319 318 316 315 314 313 313 311 310 310 311 311 310 310 309 309 308 308 307 303 301 299 300 300 301 303 305 306 307 307 308 308 307 308 308 308 307 308 309 309 309 310 311 311 310 309 308 308 309 310 310 310 309 309 309 310 311 311 311 311
338 337 336 337 336 335 335 334 334 334 335 334 332 331 331 330 328 328 329 326 325 325 323 321 319 316 315 314 314 313 313 312 311 310 310 310 310 310 310 310 309 308 309 308 306 304 302 301 301 301 301 302 302 302 304 306 306 307 307 307 307 308 308 308 308 308 309 310 310 310 309 308 308 309 309 309 309 308 309 309 310 310 310 310 310
337 336 336 337 335 335 335 334 335 335 335 334 332 331 328 327 327 328 328 324 322 322 321 319 317 314 312 312 312 311 311 311 310 309 308 307 306 306 308 309 308 307 308 308 306 305 304 303 304 303 302 303 302 302 303 303 304 306 306 306 306 307 308 307 307 307 309 309 310 309 308 308 308 308 308 308 308 308 308 309 309 309 309 309 309
337 336 336 336 335 335 334 333 333 333 333 332 332 331 325 325 328 327 326 325 322 321 319 316 315 313 311 311 311 311 310 310 309 309 307 304 302 301 305 307 306 306 307 307 306 305 304 304 305 305 304 303 303 303 303 303 303 305 305 304 305 306 306 306 306 307 309 308 308 308 307 308 308 308 308 308 308 308 307 307 308 308 308 308 308
336 336 336 336 335 335 333 332 331 331 331 331 329 327 322 323 329 328 326 324 322 320 318 319 318 313 312 315 315 312 311 310 308 308 306 304 303 301 303 305 306 306 306 305 305 304 303 303 305 306 304 304 304 303 303 303 303 304 304 303 304 305 304 304 305 307 308 308 307 307 307 307 307 307 307 307 307 307 306 306 306 307 307 307 307
336 336 336 335 334 334 332 331 330 329 329 329 327 325 323 323 327 328 326 323 321 318 318 323 322 316 318 322 317 316 320 316 309 306 307 307 306 304 303 305 305 305 305 304 304 304 302 303 305 305 305 304 303 303 303 304 303 303 303 302 303 303 302 303 305 306 307 307 307 306 307 307 307 306 307 307 307 307 306 305 305 306 306 306 306
335 335 335 334 332 332 331 330 329 328 328 327 325 325 325 324 323 324 325 325 322 321 321 324 324 321 323 324 320 323 327 319 312 310 308 309 309 306 305 305 305 306 305 304 304 304 302 302 304 304 304 304 303 303 303 303 302 302 302 302 302 302 301 302 304 305 306 306 306 306 306 306 306 306 307 307 306 306 306 305 305 305 305 305 306
333 333 333 332 330 330 330 329 328 327 327 326 324 323 324 323 323 321 322 325 325 324 323 322 323 321 320 321 321 324 322 315 315 315 309 308 309 308 306 304 304 305 305 305 304 303 303 303 303 304 304 304 303 302 303 302 301 301 302 302 302 302 301 301 303 305 305 305 305 306 306 306 306 307 307 306 305 305 305 305 305 305 305 305 305
331 331 331 330 329 329 328 328 327 326 326 325 322 321 322 322 321 319 319 322 324 324 321 320 319 316 314 316 317 319 318 313 316 317 312 309 307 306 306 304 303 304 304 304 304 303 303 304 304 304 304 303 302 302 302 300 300 301 303 303 302 301 300 301 302 303 303 303 304 305 306 306 306 306 306 305 304 304 304 304 305 305 305 305 305
330 330 329 329 328 327 327 326 326 325 325 323 321 320 320 319 318 317 315 315 316 316 316 316 315 312 311 312 313 315 315 313 313 315 317 318 312 308 307 304 305 307 307 304 303 303 304 304 304 304 304 302 301 301 300 300 301 302 302 302 302 301 301 301 302 302 302 302 303 305 306 305 305 306 305 304 304 304 304 304 304 305 304 304 304
330 330 329 328 327 326 325 323 323 323 322 321 320 320 320 319 317 316 314 313 311 311 312 313 312 311 310 310 310 312 311 311 312 311 315 321 319 313 309 307 307 309 309 306 303 304 304 304 305 304 303 302 301 300 300 301 302 302 303 302 301 300 301 302 302 302 302 302 302 303 305 304 304 305 304 304 304 304 304 304 304 303 303 303 303
328 327 326 325 324 323 321 320 320 320 320 319 319 319 320 320 319 316 314 313 312 312 313 313 313 312 312 311 311 312 310 310 311 310 311 314 316 314 310 309 310 311 310 306 303 304 305 305 305 303 302 301 300 300 301 302 302 302 303 302 301 301 301 301 302 302 302 302 302 302 303 304 304 304 304 303 303 303 303 304 303 303 302 302 302
325 324 323 321 319 318 318 319 319 318 317 317 316 316 317 318 318 316 315 314 314 314 313 313 313 312 312 311 311 311 310 310 309 310 309 310 314 314 309 309 311 312 310 305 304 304 304 303 303 302 301 300 301 301 302 302 302 303 303 302 301 301 301 301 301 301 302 302 302 302 302 302 303 303 303 303 303 303 303 303 303 302 302 301 301
322 322 321 319 317 318 318 318 318 316 314 313 313 313 314 315 316 315 314 314 313 313 312 312 312 311 311 310 310 309 309 309 308 308 308 308 311 310 307 308 311 312 310 306 305 303 302 302 301 301 301 301 302 302 302 302 302 302 303 301 301 301 301 301 301 301 301 302 302 302 302 301 301 302 302 302 302 302 302 303 302 302 301 301 300
321 320 319 318 317 318 317 316 315 313 311 310 310 311 312 312 312 312 312 312 311 311 310 310 310 310 310 309 309 308 307 307 307 307 307 306 307 307 306 307 309 310 309 307 305 303 302 302 302 302 301 302 302 302 302 302 302 302 302 301 300 301 301 301 301 301 301 302 302 302 302 301 301 301 301 302 303 302 302 302 302 301 301 300 300
320 319 318 318 317 316 315 313 312 310 310 310 310 310 310 310 311 311 310 310 309 309 308 308 308 308 308 308 307 307 306 306 306 306 305 305 305 305 306 309 308 306 306 305 303 303 302 302 303 302 301 303 303 302 303 302 302 302 301 300 300 300 300 300 301 301 301 302 302 302 301 301 300 300 300 302 303 302 302 302 302 301 300 300 300
320 319 319 318 317 315 313 311 310 310 310 310 310 310 310 310 310 309 309 309 308 308 308 307 307 307 306 306 306 306 306 305 305 304 304 304 304 304 306 312 314 309 306 305 303 302 302 302 302 302 302 304 303 302 303 302 302 301 300 299 300 300 300 300 300 301 301 302 302 302 302 301 301 300 300 302 302 302 302 301 301 300 300 300 300
320 320 319 317 316 315 313 310 310 310 309 309 309 309 308 308 308 308 308 308 307 307 307 307 306 306 306 305 305 305 305 305 304 304 304 304 304 303 304 308 313 314 312 311 306 302 302 303 302 302 302 304 303 302 303 302 302 301 300 299 299 299 299 300 300 301 302 302 302 302 302 301 301 300 301 302 302 301 301 300 299 299 300 300 300
321 319 318 317 316 315 312 310 310 309 309 309 308 307 306 306 306 306 306 306 305 306 306 306 305 304 304 303 304 304 303 303 303 303 303 304 303 303 303 303 307 311 313 314 311 304 303 304 303 303 303 303 303 303 302 302 302 301 299 299 299 299 299 300 300 301 301 302 302 302 302 301 301 300 300 301 301 301 300 299 299 299 299 299 299
321 318 317 316 315 314 312 310 309 309 309 308 307 306 305 305 305 305 305 304 304 305 305 305 305 305 304 303 301 302 302 302 303 303 303 303 303 303 303 302 303 305 306 309 311 306 303 304 304 303 303 303 303 302 302 302 301 300 298 298 299 298 299 300 300 301 301 301 301 302 302 301 301 300 300 300 300 300 299 299 299 299 298 298 297
319 317 317 316 314 312 311 309 309 310 309 308 306 305 303 304 305 305 305 304 303 304 305 305 305 305 304 302 301 301 301 301 302 303 302 302 303 303 303 302 301 302 302 304 307 305 302 304 304 303 303 303 303 302 302 301 301 299 298 298 298 298 298 299 300 300 300 301 301 301 301 301 301 300 300 300 300 299 299 298 298 298 298 297 296
318 317 317 315 313 312 310 309 310 310 308 307 306 304 303 304 304 304 304 304 304 305 305 305 304 304 302 302 303 303 302 302 302 303 303 302 302 302 303 303 302 302 302 302 304 303 302 303 303 303 303 303 302 302 301 301 299 297 297 298 297 297 298 299 299 300 300 301 301 301 301 301 301 300 299 300 300 299 299 298 298 298 297 296 296
318 318 316 314 313 311 309 310 310 309 308 307 305 304 303 304 304 304 304 304 304 305 305 305 305 305 305 305 305 304 303 303 303 303 303 303 303 302 302 302 302 302 302 302 303 303 303 302 302 302 302 302 302 302 301 301 298 297 297 297 296 297 298 299 299 300 300 301 301 300 301 301 301 300 299 299 299 299 298 298 298 297 297 296 296
319 317 315 313 312 310 309 309 309 308 308 307 306 304 303 303 304 305 305 304 304 305 305 305 305 306 306 305 305 305 304 304 303 303 303 302 302 302 302 302 302 302 302 302 303 303 303 302 302 301 302 302 302 301 301 300 298 297 297 297 296 297 298 298 299 300 300 301 301 301 301 301 301 300 299 299 299 299 298 298 297 297 297 296 296
318 316 314 313 311 310 309 309 308 308 308 308 306 304 303 304 305 306 305 304 305 305 305 305 305 304 304 304 304 304 304 303 303 303 303 303 302 301 302 302 302 302 301 302 303 303 303 302 301 301 302 302 301 301 301 299 297 297 297 296 297 297 297 298 299 299 300 301 301 301 301 301 300 299 299 299 299 299 298 298 297 297 297 296 296
317 315 314 312 311 310 309 309 308 308 308 308 306 304 304 305 305 306 306 305 305 305 305 305 305 304 304 304 304 304 304 303 303 302 303 303 302 301 301 302 301 301 301 301 302 302 302 302 301 301 301 302 301 301 300 298 297 297 296 296 297 297 297 298 298 299 300 300 301 301 301 301 299 298 299 299 299 299 299 298 298 297 297 297 296
316 315 314 312 311 310 309 309 309 308 308 307 306 306 306 306 306 306 307 306 305 305 305 305 305 305 305 304 304 304 304 304 303 303 303 303 302 301 301 301 301 300 301 301 301 301 301 301 300 300 301 301 300 300 299 298 298 297 296 296 297 297 297 298 298 299 299 300 300 301 301 301 299 298 298 299 299 299 299 299 298 298 297 297 296
316 315 314 313 311 310 309 309 308 308 308 307 308 308 307 306 306 306 306 306 305 305 305 305 305 305 305 305 304 304 304 304 304 303 303 302 302 301 300 300 300 300 300 301 300 300 300 299 300 300 301 300 300 299 298 297 297 297 296 297 297 297 297 297 298 299 299 300 300 300 301 301 300 299 298 298 299 299 299 299 299 298 297 297 296
316 315 313 313 311 310 309 308 308 309 308 308 309 308 306 306 306 306 306 305 305 305 305 305 306 305 305 305 305 305 304 304 303 302 302 302 302 300 299 299 299 300 300 300 299 299 299 298 299 300 301 300 299 298 297 296 297 297 297 297 297 297 297 297 298 299 299 299 300 300 301 302 300 299 298 298 298 299 299 299 299 298 298 297 296
315 315 313 312 311 310 309 308 308 309 308 308 308 307 306 306 306 306 306 305 305 305 305 305 306 305 305 305 304 304 304 303 303 301 300 301 301 300 298 297 298 299 299 299 298 298 298 297 298 300 300 299 298 297 297 297 297 297 297 297 297 297 297 298 298 299 299 299 299 299 301 301 300 299 299 298 298 298 298 298 299 298 298 297 296
315 314 313 312 311 310 309 309 308 308 308 308 308 306 306 306 306 305 305 306 305 305 305 305 305 305 305 304 304 303 303 302 301 298 298 300 301 299 297 295 296 297 297 297 297 296 296 296 298 299 299 298 298 298 297 298 298 298 298 298 298 298 297 298 299 299 299 299 299 299 300 301 300 299 299 299 298 298 298 298 298 298 298 298 296
315 314 313 312 311 310 309 309 308 308 308 308 307 306 306 306 305 305 305 306 305 305 305 305 305 305 304 304 303 302 301 300 297 295 296 298 298 296 294 294 295 295 294 294 295 294 294 295 296 297 298 298 298 298 298 298 299 299 299 299 298 298 298 298 298 299 299 299 299 299 300 300 300 299 299 299 298 298 297 297 298 298 298 298 296
315 314 313 312 311 310 310 309 309 308 308 308 307 307 306 306 305 305 305 305 305 305 305 305 305 304 303 303 302 299 297 295 294 293 294 295 295 295 296 297 297 297 297 296 296 295 295 295 296 297 297 298 298 299 299 299 300 300 300 300 299 298 298 297 297 299 299 299 299 299 299 299 299 299 299 299 298 297 297 297 297 298 298 298 296
315 314 313 313 312 311 310 309 309 308 307 307 307 307 307 306 306 305 305 305 305 305 305 305 305 304 303 303 299 295 293 293 293 294 294 295 297 298 299 300 301 301 301 300 300 298 297 297 297 297 297 298 299 299 300 300 300 300 300 300 299 299 298 297 297 298 299 299 299 299 299 299 299 299 299 299 298 297 297 297 297 298 298 298 296
315 314 313 312 312 311 310 309 309 308 307 307 307 307 307 307 306 305 305 305 305 305 305 305 305 304 304 301 295 291 293 294 294 295 297 298 300 301 301 302 302 302 302 302 302 301 299 298 298 298 297 298 299 300 301 300 300 301 301 300 299 299 299 299 299 299 299 299 299 299 299 299 299 299 299 299 298 297 297 297 297 297 298 298 296
315 314 313 312 312 311 310 309 308 307 307 307 307 307 307 307 306 306 305 305 305 304 304 305 305 304 304 301 297 295 297 297 295 297 300 301 301 301 301 302 303 303 303 303 303 302 300 299 299 299 298 299 300 300 301 301 301 301 301 300 299 299 299 300 299 299 299 299 299 298 298 299 298 298 299 299 298 298 297 296 297 297 297 297 296
315 314 313 312 312 311 310 310 308 307 307 307 307 307 307 307 307 306 306 306 305 305 305 305 305 304 304 303 302 301 301 300 298 298 300 301 301 301 302 303 303 303 303 303 303 303 301 300 300 299 299 300 301 301 302 302 301 301 300 300 299 299 300 300 299 299 299 299 299 298 298 299 299 298 299 299 298 298 297 296 297 297 297 297 297
314 313 312 312 312 311 311 310 309 307 307 307 307 307 307 307 307 307 307 306 305 306 305 305 305 305 304 304 304 303 302 302 301 300 300 300 300 300 301 303 304 303 303 304 304 302 301 300 299 299 300 301 301 301 302 301 300 300 299 299 299 299 300 300 299 299 299 299 299 298 298 298 298 298 299 299 298 298 297 297 297 297 297 297 297
314 313 312 312 311 311 311 310 309 308 307 307 307 306 306 306 307 307 307 307 306 306 306 306 306 305 305 304 304 303 303 303 303 303 302 300 297 297 299 302 303 303 303 303 302 301 300 299 298 298 300 301 301 301 301 301 300 300 299 299 299 299 300 299 298 298 299 299 299 298 298 298 298 298 299 299 298 298 297 297 297 297 297 297 297
313 312 312 312 311 311 311 311 310 309 308 307 307 306 305 305 306 307 308 307 306 306 307 307 306 306 305 304 304 304 304 304 304 304 303 300 296 294 299 302 303 303 303 302 301 301 300 298 298 300 301 301 301 301 301 300 300 299 299 300 299 299 299 299 298 298 298 298 298 298 298 298 298 298 298 298 298 298 297 297 297 297 297 297 297
313 312 312 312 311 311 311 311 310 310 308 307 307 307 305 305 306 307 307 307 306 306 307 307 306 305 305 305 304 304 304 304 304 304 303 302 297 295 300 303 303 303 303 302 302 302 300 298 299 301 301 300 300 300 300 300 300 299 300 300 299 299 299 298 298 298 298 298 298 298 298 298 298 298 298 297 297 298 297 297 297 297 298 298 297
Wind_Speed
9 9 8 7 7 6 5 5 5 6 6 4 5 6 4 5 6 4 6 9 9 9 9 9 9 9 10 11 13 13 10 9 10 12 13 13 14 13 13 13 13 14 14 13 12 11 11 11 11 11 11 12 13 14 15 16 16 17 18 17 17 17 17 17 17 17 18 17 17 18 19 19 20 19 19 18 17 15 14 16 16 17 19 17 18
9 9 9 8 7 7 5 5 6 6 5 4 5 6 5 6 6 5 7 9 8 9 11 10 9 10 15 17 15 13 12 10 10 11 13 13 13 13 13 13 13 14 15 15 13 12 12 13 13 12 13 13 13 15 16 17 17 17 18 19 18 18 17 18 18 18 18 18 18 19 20 21 21 21 21 20 19 18 16 16 16 17 18 18 19
9 8 8 8 8 8 8 7 8 7 5 5 5 5 6 6 6 7 8 9 8 10 10 11 14 15 16 17 17 16 14 11 10 10 12 12 12 12 12 12 12 13 14 15 14 14 15 16 17 16 15 15 14 15 16 17 17 17 17 18 18 17 17 17 17 18 18 18 19 20 21 21 21 22 22 21 21 20 19 18 18 19 19 19 19
8 8 8 9 10 11 11 9 8 7 7 5 5 6 7 7 7 7 9 9 8 11 12 14 19 18 15 13 14 16 15 12 10 9 9 10 10 11 10 10 10 12 13 15 16 16 17 19 19 19 17 16 16 15 16 16 17 17 17 17 18 18 18 18 18 19 19 19 20 21 21 21 21 21 22 22 21 21 21 21 20 20 21 20 20
9 8 8 9 11 12 12 11 8 8 9 7 6 7 7 8 8 8 9 9 11 17 18 18 19 18 17 15 13 13 13 13 12 12 11 10 10 10 9 9 10 12 13 14 15 17 18 18 19 20 19 18 17 16 16 16 16 17 17 18 19 19 19 19 19 20 20 20 20 21 22 21 21 21 21 21 21 21 22 21 21 21 21 22 21
10 9 8 9 12 13 13 12 10 10 9 7 7 8 7 7 8 8 7 8 14 18 18 18 17 16 16 16 15 13 11 11 12 12 12 11 10 10 10 10 10 11 12 14 15 16 18 18 18 19 19 19 19 18 17 16 16 16 17 19 19 20 20 20 20 20 20 20 20 20 21 21 21 21 21 21 21 21 22 21 21 21 21 22 22
10 10 10 10 10 10 10 10 11 11 9 7 6 7 6 7 9 9 9 12 16 17 16 16 15 14 14 13 14 13 12 11 10 9 8 7 7 7 8 9 10 10 10 11 12 14 15 16 17 17 18 19 19 18 17 16 16 16 17 19 20 21 22 22 21 21 21 21 20 20 21 22 22 22 22 21 21 21 21 21 21 21 21 21 21
13 11 11 11 10 9 8 9 11 11 9 7 6 8 7 7 10 8 10 16 17 17 16 15 15 15 13 12 11 11 10 9 7 6 4 3 5 6 7 7 8 9 9 9 10 12 14 15 15 15 16 17 17 18 17 16 17 17 17 20 22 23 24 24 23 22 21 21 21 21 21 22 22 22 22 22 22 21 22 22 21 21 21 20 20
16 15 15 14 13 12 11 10 11 12 10 8 7 10 9 7 10 6 8 16 18 18 17 16 16 15 13 12 11 9 8 7 5 5 3 4 7 8 9 8 9 11 11 11 12 12 12 13 13 13 14 15 15 16 16 15 17 18 17 19 22 23 25 25 25 23 21 21 21 21 22 22 22 22 22 22 22 23 23 22 22 21 21 21 20
17 17 18 17 16 16 15 12 12 14 10 7 9 11 9 8 11 6 7 15 18 18 17 16 16 14 14 12 10 9 7 5 5 5 6 7 8 8 9 9 10 12 14 13 13 13 12 12 11 9 9 12 13 13 15 15 16 18 17 18 19 21 23 25 25 24 22 21 21 21 22 23 23 23 22 22 23 24 23 22 23 23 22 22 20
16 18 19 18 17 17 14 11 12 12 8 7 10 11 8 8 10 6 9 17 17 17 17 16 15 14 13 12 10 10 8 7 6 7 8 7 7 7 8 8 9 10 12 13 13 13 14 14 13 11 9 10 11 10 12 14 15 17 17 17 17 19 21 23 25 25 22 21 21 21 22 23 23 23 23 23 24 25 25 23 23 23 23 22 22
18 18 18 17 17 17 13 10 11 10 7 8 10 10 8 9 10 8 15 20 16 16 15 15 16 15 12 11 10 8 8 8 7 7 6 6 6 6 5 6 8 9 9 11 12 12 12 13 14 16 15 14 14 13 12 13 13 14 16 17 17 18 20 23 25 25 22 21 21 21 22 23 23 23 24 24 24 25 25 25 24 24 23 22 23
19 18 17 17 17 16 13 11 11 11 9 7 9 9 8 11 13 11 16 20 18 15 13 14 17 15 10 10 9 8 7 7 6 5 3 3 3 4 5 5 6 7 7 8 10 10 11 12 13 15 17 17 18 17 16 15 14 13 14 17 18 18 20 22 25 24 22 22 22 22 22 23 24 24 24 25 25 25 25 25 26 25 24 24 24
18 17 17 17 16 16 13 10 10 10 10 8 8 8 8 12 15 13 14 15 15 14 12 12 13 13 12 9 7 6 6 5 6 4 2 3 3 4 5 5 6 7 6 6 7 8 10 11 11 13 15 16 17 19 18 17 16 14 14 17 19 19 20 22 25 24 22 23 23 23 23 23 24 24 24 25 26 26 26 26 26 26 25 25 25
17 16 16 16 15 16 13 10 10 9 9 10 10 10 10 13 15 14 14 14 13 13 11 8 10 14 13 6 3 4 3 2 4 4 3 4 5 6 6 7 7 6 6 5 5 6 9 9 8 10 13 15 16 18 18 17 16 15 15 20 20 19 21 23 24 23 22 23 23 23 23 23 24 24 24 25 26 27 27 27 27 27 26 26 26
16 15 16 16 14 15 14 11 10 9 9 11 12 13 13 13 14 13 14 17 16 14 11 7 10 14 8 2 4 4 1 3 4 4 3 3 4 6 7 8 8 6 5 4 4 6 9 7 5 7 10 12 15 17 17 16 15 15 18 21 20 21 25 25 24 23 22 24 24 24 23 23 24 24 25 26 27 28 28 29 29 29 28 27 26
15 14 15 15 14 14 14 12 11 10 10 11 13 14 13 12 12 12 14 17 17 15 11 7 10 12 5 3 4 2 2 5 5 3 4 3 2 3 4 6 7 6 4 1 3 6 10 7 5 6 6 8 14 16 15 14 15 18 19 20 20 23 27 26 23 23 23 24 24 24 24 24 25 26 26 27 29 29 29 29 30 30 29 27 26
15 14 14 15 14 13 13 13 12 12 12 12 13 13 13 11 11 11 12 16 19 18 13 9 9 8 5 3 4 2 5 8 5 2 4 5 5 4 1 3 4 3 3 1 3 4 8 7 7 6 4 7 13 14 12 14 18 18 18 18 21 24 27 25 23 22 22 23 23 23 24 25 25 25 26 28 29 30 30 30 30 30 28 27 26
15 14 14 15 14 13 12 13 13 14 14 15 14 14 14 12 11 11 11 13 16 17 14 11 9 7 5 5 5 5 8 9 5 3 3 4 6 7 4 3 4 3 3 2 1 4 6 5 6 6 6 8 12 11 13 17 18 17 17 18 21 25 26 24 23 22 22 23 23 23 24 25 25 25 27 29 30 30 30 29 29 29 29 27 26
15 14 14 14 13 11 10 12 14 15 15 16 16 15 15 14 13 12 12 12 12 13 14 12 10 9 9 8 8 8 9 8 5 6 4 2 5 6 7 6 5 3 1 1 1 4 6 5 5 6 7 9 11 13 16 18 17 17 18 18 23 26 25 23 23 23 23 24 23 23 24 25 24 26 28 30 30 30 30 29 29 30 30 28 26
15 14 13 13 12 11 10 12 14 15 15 16 16 15 15 15 15 14 14 14 13 14 14 12 11 12 11 11 11 11 9 8 6 5 4 3 3 4 7 9 8 7 3 1 1 2 5 5 5 6 7 10 13 16 18 18 19 19 16 18 25 27 24 23 22 22 24 24 23 23 23 24 25 27 29 29 30 30 30 29 29 29 29 28 26
13 12 12 12 11 11 13 14 15 15 15 15 15 15 15 15 15 15 16 17 17 16 15 13 13 13 12 12 11 10 8 6 7 7 7 5 3 1 6 10 8 7 5 1 3 3 6 6 5 6 7 11 15 18 19 19 20 18 15 20 27 26 24 23 22 24 25 23 22 24 24 23 25 27 28 29 30 29 30 30 30 30 29 28 26
13 12 11 12 13 15 16 16 15 14 14 14 14 14 15 15 15 15 16 16 16 16 15 14 13 13 12 12 12 11 10 8 8 9 8 6 4 2 0 4 7 7 6 4 3 5 5 4 6 7 9 13 17 18 20 20 20 17 16 23 27 25 24 23 23 25 24 22 22 24 24 23 24 25 26 29 30 29 30 31 30 29 29 28 27
16 15 14 15 16 16 16 16 15 14 13 14 14 14 15 15 16 16 16 15 15 15 14 13 13 14 14 13 13 13 12 11 9 10 10 8 6 3 4 3 3 5 6 6 3 7 10 10 9 9 12 14 17 19 20 20 20 18 19 25 27 25 25 24 24 24 24 24 24 24 24 25 26 26 27 29 28 29 30 30 30 30 29 28 27
18 17 16 17 18 17 16 16 15 14 14 14 15 15 16 16 17 17 16 15 15 15 15 14 13 13 14 13 13 12 12 10 8 9 10 9 9 6 4 5 3 2 5 5 4 7 10 11 10 11 13 14 17 19 19 20 21 20 22 27 27 26 26 25 24 24 25 25 24 23 24 26 28 29 31 30 27 29 30 30 30 29 28 28 28
20 18 18 19 18 17 16 16 16 16 16 16 17 17 17 18 18 17 17 16 16 15 15 15 14 13 12 12 12 12 12 10 9 10 9 9 10 8 4 3 4 4 4 5 6 8 7 8 10 12 11 14 18 19 19 20 21 22 25 27 27 26 26 25 24 25 26 25 25 24 24 26 28 31 34 31 28 29 30 30 30 29 28 28 27
21 20 20 19 18 18 17 17 18 18 18 17 18 18 17 18 18 18 18 17 16 16 15 15 14 13 12 13 13 12 11 10 10 11 11 11 11 9 6 4 4 5 6 6 8 11 9 7 8 10 11 15 18 19 20 20 22 24 26 28 27 27 27 26 26 26 25 25 25 25 26 25 27 32 34 31 29 29 29 30 30 28 26 26 26
22 21 20 20 19 19 18 19 19 19 19 18 18 18 17 18 18 18 17 17 16 16 16 15 14 13 12 12 12 12 11 10 11 12 12 11 11 9 8 7 5 2 3 3 4 8 11 10 9 9 13 16 18 19 20 20 22 25 28 28 28 28 28 27 26 26 25 25 26 28 28 25 26 33 33 29 29 29 29 30 30 28 26 26 25
22 21 20 20 20 19 19 20 20 20 19 18 18 18 17 17 17 17 17 16 16 16 15 15 14 12 12 11 11 12 11 10 12 12 11 11 10 10 9 9 8 4 2 3 3 5 10 11 10 12 15 16 17 20 20 21 23 26 28 29 29 30 29 27 26 26 26 26 26 29 30 25 25 32 33 30 31 30 30 31 30 29 27 26 25
21 22 22 21 20 19 20 21 21 20 20 19 18 17 17 18 17 17 17 16 16 16 15 15 14 13 13 12 12 12 11 10 11 11 10 10 9 9 9 9 9 7 5 2 1 4 9 10 11 14 16 16 17 19 20 21 23 26 28 29 30 30 28 26 27 27 26 26 26 28 29 25 24 31 33 32 33 32 32 32 30 28 28 27 28
22 24 23 21 20 20 20 22 21 20 19 18 18 18 18 19 18 17 16 16 17 17 16 14 13 12 12 12 12 12 11 10 10 9 9 9 8 7 7 8 8 8 6 4 0 3 7 10 12 13 15 16 17 18 20 21 24 26 28 29 30 29 28 27 28 27 26 26 25 27 29 26 23 30 32 32 33 33 34 32 28 27 27 29 30
24 25 23 22 21 21 22 23 22 20 19 19 18 19 19 19 18 17 16 16 16 17 15 14 13 12 13 13 12 11 10 9 9 9 7 7 7 7 7 7 7 6 5 5 2 5 7 9 12 13 14 15 16 18 20 22 24 27 28 30 30 29 28 28 28 27 25 26 26 28 30 26 22 29 32 31 32 33 33 32 28 26 28 31 32
25 24 23 23 22 22 23 23 22 21 20 20 19 20 20 19 18 17 16 15 16 16 14 14 13 12 12 12 10 9 8 7 7 6 5 4 5 6 6 5 5 5 4 4 4 7 9 10 12 13 14 15 16 18 20 22 26 27 28 30 30 29 29 28 28 27 25 25 26 29 32 26 21 28 32 29 29 30 31 30 28 29 31 34 35
25 24 24 24 23 23 24 24 23 22 21 21 20 20 20 20 19 17 16 16 16 16 15 14 12 11 11 11 11 10 8 6 6 6 5 6 5 5 5 4 3 3 4 5 5 7 10 13 14 14 15 15 16 17 19 23 26 27 29 31 29 29 29 29 29 27 25 25 25 29 32 24 21 29 31 27 26 27 28 28 28 29 30 32 35
24 25 25 25 24 24 25 25 24 23 22 21 21 20 20 20 20 18 16 16 17 16 15 14 13 11 11 11 10 10 8 6 6 6 6 7 4 4 4 4 3 3 3 4 6 8 11 13 15 16 16 15 16 17 19 23 25 26 29 30 29 30 29 29 29 28 26 25 25 28 28 21 23 30 29 25 25 25 26 27 27 28 29 30 34
25 25 25 25 25 25 25 25 24 24 23 21 20 20 20 20 20 19 17 16 16 16 15 15 14 12 11 10 10 10 8 6 5 6 7 6 5 3 2 3 4 4 3 2 6 9 10 13 15 15 15 15 16 17 20 23 24 26 29 30 29 31 31 30 30 29 28 27 27 27 24 19 25 31 28 25 25 25 27 28 27 28 29 30 35
26 26 25 25 25 25 25 25 24 23 22 21 20 20 19 19 19 18 17 16 16 16 14 14 13 12 11 10 10 10 8 7 6 6 7 5 4 1 2 1 2 3 2 3 7 9 10 12 14 14 15 16 16 17 20 23 24 26 29 31 31 31 32 33 32 31 31 30 29 28 22 20 26 32 30 27 26 26 27 28 28 28 28 30 37
27 27 26 25 24 24 24 24 23 23 21 21 20 20 19 19 18 18 17 16 16 15 14 13 12 11 11 10 10 9 9 8 7 6 7 6 3 2 0 2 2 1 1 3 6 8 10 11 12 14 16 16 17 19 21 21 22 23 27 31 33 33 32 33 34 33 32 31 31 29 24 22 27 33 33 29 27 27 28 29 28 28 27 31 40
28 28 26 26 25 25 24 24 24 23 22 21 20 20 20 20 19 18 18 17 16 15 14 14 13 11 11 12 11 11 10 9 8 7 7 7 3 1 1 2 2 1 1 3 5 7 9 10 11 14 16 16 17 19 19 19 21 23 24 26 30 33 34 34 34 34 34 33 33 32 27 24 27 33 34 31 28 28 29 30 29 28 27 32 43
29 28 27 26 26 25 24 24 24 23 23 22 21 21 21 21 20 19 19 18 18 17 16 14 13 13 13 13 12 11 10 9 8 8 8 7 5 2 2 3 3 2 2 3 4 7 9 9 10 13 15 16 17 18 19 19 21 24 25 24 26 29 33 34 34 34 34 34 34 34 31 26 28 34 35 33 31 29 30 31 30 27 27 34 45
29 27 27 26 26 25 24 24 24 24 23 23 23 23 23 22 21 20 20 20 20 19 17 15 14 14 13 13 12 11 10 9 7 6 8 8 5 2 2 2 2 2 3 3 5 7 8 10 11 12 15 16 17 19 20 20 21 23 26 26 25 28 31 33 35 34 32 33 35 36 34 29 29 34 36 34 34 32 33 34 31 28 28 35 47
29 27 26 26 26 26 25 25 25 25 24 24 23 23 24 23 22 22 22 20 19 19 18 17 16 14 13 12 11 10 9 8 6 5 7 7 5 2 3 4 4 4 5 6 6 7 9 10 11 12 15 16 17 18 19 20 20 22 25 26 27 29 29 28 31 33 33 32 34 36 35 31 30 34 36 35 35 36 37 36 33 28 28 36 48
28 27 27 26 26 25 25 26 27 26 25 25 23 23 23 22 22 23 22 20 19 19 19 18 16 14 13 11 8 8 9 8 7 6 7 7 6 5 4 4 5 5 6 7 7 8 9 10 11 12 13 15 17 18 19 20 21 23 26 27 27 29 27 22 22 27 33 33 32 33 35 34 32 34 35 34 35 38 39 37 33 29 29 36 48
28 27 26 26 26 25 25 26 27 26 25 24 23 22 22 22 22 22 21 20 20 19 18 17 16 15 12 9 7 8 9 9 9 8 8 7 5 3 2 3 4 5 6 6 7 7 8 9 11 12 13 15 17 19 20 21 23 25 26 27 28 28 27 23 21 26 32 34 31 30 32 35 35 33 33 34 36 38 39 37 34 31 31 36 47
28 27 26 26 26 25 25 26 26 26 24 22 22 23 23 23 22 21 21 21 20 19 18 17 16 14 11 8 8 10 10 8 8 8 6 4 1 1 2 4 5 6 7 8 8 8 8 8 10 13 14 15 17 20 22 24 26 26 27 28 28 27 27 26 26 29 33 33 30 27 28 33 37 34 31 33 37 38 37 37 35 33 33 37 46
29 27 26 26 26 24 24 26 26 25 24 22 23 24 23 22 20 20 20 20 18 18 17 17 16 14 10 8 9 9 7 5 6 7 6 4 4 5 5 6 7 8 9 10 11 11 9 9 11 14 14 15 18 22 24 26 28 27 26 26 25 25 27 27 27 30 32 33 32 26 22 29 36 34 30 33 36 37 37 37 37 36 35 38 45
30 28 26 26 27 24 23 25 26 26 25 23 24 25 23 20 19 19 18 18 17 17 17 16 15 13 11 9 8 7 4 3 6 9 8 8 7 7 6 6 7 8 9 11 11 10 9 9 12 14 15 16 19 23 25 25 24 21 20 21 22 23 25 25 27 30 31 33 32 24 19 26 35 33 31 34 35 35 37 38 39 38 37 39 44
30 28 26 26 27 25 24 26 28 27 26 25 26 26 23 22 22 21 18 17 17 16 15 15 14 14 13 11 8 6 4 5 8 10 10 10 11 10 9 8 6 7 9 10 8 7 7 10 13 15 16 17 20 23 22 18 15 15 17 20 23 24 23 23 25 28 30 32 32 25 20 25 32 31 32 36 34 32 36 40 40 40 39 40 43
29 28 26 26 26 27 26 28 29 29 28 28 28 28 27 26 25 23 20 20 19 17 15 15 14 14 13 11 9 8 8 10 11 12 12 12 12 12 11 9 7 6 7 6 4 4 7 11 13 15 16 17 19 18 13 11 14 17 19 22 23 24 22 19 18 23 29 30 30 28 24 25 31 31 30 35 34 31 34 40 43 41 39 42 44
29 29 28 27 27 28 27 28 30 30 30 30 29 29 27 27 27 26 22 22 24 21 19 19 18 15 14 14 14 13 11 11 13 13 14 13 12 12 12 10 7 6 6 5 5 7 10 11 11 12 13 14 15 13 9 10 17 20 20 21 22 22 21 19 18 22 26 27 30 31 26 26 32 32 28 28 30 31 35 39 43 43 40 41 44
29 28 28 28 27 27 28 28 28 28 31 32 30 28 27 26 28 28 24 24 25 22 20 22 21 18 17 18 18 17 14 12 13 15 16 15 13 12 13 11 9 7 7 7 8 11 12 12 10 11 13 14 13 11 8 11 17 20 19 19 19 20 21 23 23 20 15 19 30 32 27 26 31 33 29 21 16 23 36 41 41 43 42 43 45
Wind_Direction
199 202 202 197 196 200 199 188 194 200 201 205 195 196 194 184 183 161 158 161 137 112 120 122 103 94 106 125 147 150 138 123 102 88 83 81 77 67 53 46 45 43 40 39 42 42 41 42 43 47 46 35 27 29 31 31 30 26 24 23 26 29 23 20 18 15 18 15 7 8 7 6 6 2 1 0 356 351 348 346 346 348 346 342 340
196 200 200 187 184 186 173 163 170 180 183 175 177 171 155 162 163 140 147 155 133 114 116 112 109 110 106 105 120 145 153 138 110 91 86 83 76 68 56 46 44 40 37 39 43 46 46 47 48 50 53 50 42 39 39 37 37 33 29 28 30 33 28 25 23 20 21 17 12 14 11 11 10 5 5 5 0 357 349 340 339 339 340 338 335
192 193 187 173 176 177 164 160 162 168 164 146 153 149 138 139 131 118 127 135 121 115 117 110 113 119 116 106 103 117 140 139 110 89 84 80 70 64 58 48 43 38 35 38 47 53 54 52 51 52 56 55 50 45 42 40 39 36 34 32 31 32 29 27 24 20 21 18 15 15 12 11 10 6 5 5 2 359 355 349 344 337 335 333 330
188 183 171 164 173 173 161 154 155 168 168 149 146 140 128 121 117 112 114 118 116 119 128 122 113 115 119 118 108 104 113 120 107 93 85 76 68 64 59 51 43 38 36 40 50 54 53 53 49 48 52 54 52 48 44 41 40 38 35 33 31 30 26 24 22 19 19 17 14 13 12 11 9 6 3 2 1 358 356 355 352 346 343 338 332
179 176 165 159 167 172 165 153 145 157 164 157 150 142 133 125 121 120 115 115 121 125 129 124 115 112 113 117 119 108 104 105 103 103 100 92 86 77 67 56 45 40 38 41 48 51 49 48 47 42 43 49 50 47 43 39 38 37 35 31 28 26 23 20 18 17 15 14 12 10 10 8 6 4 1 359 358 357 355 354 351 348 347 343 340
176 174 166 161 165 167 160 152 149 151 152 148 143 142 142 140 140 139 133 129 131 134 132 124 119 115 113 113 115 114 111 106 103 106 106 104 99 87 77 66 58 49 42 43 44 46 45 42 42 37 33 41 45 43 42 36 35 35 32 29 25 22 21 17 15 14 11 11 10 7 6 5 3 0 359 358 356 354 353 352 349 347 345 343 343
178 176 167 165 164 157 150 152 154 149 140 136 141 155 156 147 150 142 133 138 137 138 137 128 124 119 116 116 115 116 116 113 112 108 104 101 93 85 83 75 70 64 52 52 48 45 46 41 38 33 28 33 37 37 39 35 33 33 30 27 23 21 19 15 12 10 7 7 6 4 2 1 360 357 356 355 354 351 349 348 346 345 344 343 342
169 163 161 163 160 159 164 161 151 143 142 149 164 181 177 159 159 140 122 140 141 136 139 135 127 120 117 119 120 123 119 117 117 112 105 79 67 67 73 72 69 66 60 64 61 51 49 41 35 32 27 27 27 26 31 35 31 29 28 25 23 21 18 14 9 6 4 3 2 0 358 357 357 356 354 353 352 349 346 344 342 342 340 339 339
168 159 161 161 157 157 161 158 152 155 158 160 173 183 184 171 171 157 119 144 147 137 137 134 129 125 122 120 121 126 122 120 118 109 97 68 65 58 54 57 59 58 55 61 66 58 50 44 34 30 27 23 21 16 17 27 27 23 23 22 20 19 17 13 9 5 2 1 360 358 357 355 354 354 353 351 350 348 345 342 339 337 335 334 335
171 161 160 157 155 156 156 157 162 166 163 153 163 172 180 179 177 170 136 154 154 142 138 132 131 129 126 125 123 124 119 119 121 105 95 79 69 57 49 50 50 50 48 48 56 55 50 46 37 33 31 26 23 13 6 10 15 15 14 13 13 13 12 10 7 4 1 360 358 357 356 354 352 350 349 348 347 346 344 341 336 334 334 334 334
165 156 154 150 152 158 154 154 160 164 165 162 163 164 170 176 178 173 150 157 157 148 142 134 131 131 128 129 127 124 119 116 116 114 112 103 92 79 63 51 40 39 38 35 37 43 44 41 40 41 43 38 33 24 9 3 2 4 6 4 2 2 3 3 3 1 359 357 355 354 353 350 349 347 345 344 343 342 342 339 335 333 335 335 334
159 152 151 150 156 158 152 151 157 163 169 167 167 170 177 166 157 153 146 147 148 145 142 136 130 124 123 127 128 129 128 125 121 123 130 132 131 121 96 76 57 39 32 32 28 25 26 28 31 33 34 34 32 31 21 7 358 357 360 358 353 352 354 356 357 357 356 356 354 353 351 349 349 347 346 345 342 340 339 336 334 334 334 332 331
159 150 149 155 160 159 156 153 158 172 179 172 169 172 178 155 140 143 148 142 139 141 143 140 128 118 115 117 117 120 128 133 128 126 132 138 153 153 134 114 84 58 45 40 23 9 5 8 13 18 21 21 19 21 17 10 3 356 354 356 353 349 349 351 353 354 356 356 354 353 351 349 348 347 347 347 346 344 341 338 335 334 331 328 327
156 150 152 158 160 161 160 152 154 172 180 176 174 171 168 157 144 146 157 150 145 152 155 144 135 137 134 117 104 109 117 129 127 120 112 94 78 101 127 120 97 84 72 45 13 360 356 355 357 2 8 10 10 9 7 7 5 356 349 354 354 351 350 350 351 353 354 353 353 351 349 348 347 346 345 345 345 345 343 340 336 332 329 326 326
153 155 160 161 161 163 161 155 156 169 177 174 171 165 161 162 153 151 161 158 153 163 163 145 146 152 142 126 135 125 107 141 141 133 109 83 68 76 102 105 93 88 84 57 15 2 353 343 344 354 359 2 4 2 360 1 1 355 350 350 351 352 353 352 351 351 351 351 351 349 348 347 346 345 343 341 342 343 341 338 335 332 329 325 323
156 162 163 161 161 165 165 162 159 160 173 175 168 161 158 163 164 164 166 160 155 163 170 162 158 157 145 132 157 135 162 212 165 148 128 94 77 79 89 97 91 84 87 62 11 1 357 345 342 353 351 354 359 357 356 357 359 357 349 345 347 353 355 352 350 350 350 350 349 348 347 347 345 343 341 340 340 341 339 337 335 332 328 324 320
166 169 165 164 163 167 172 173 169 161 163 169 164 162 162 165 171 177 176 167 160 159 165 175 172 172 175 138 139 144 213 175 156 166 188 192 164 103 88 92 90 82 86 43 332 357 11 17 22 12 351 348 357 357 358 1 0 353 344 343 349 354 354 352 351 350 350 350 350 349 348 347 345 342 341 340 340 339 338 336 334 332 329 325 322
171 171 169 171 170 172 176 179 178 166 161 163 158 161 169 170 173 182 183 174 167 160 156 164 169 177 187 151 139 170 168 153 143 163 204 212 202 181 138 94 102 92 102 189 281 350 16 25 33 32 12 354 360 3 5 1 355 348 343 347 351 351 352 352 351 349 350 351 351 350 349 348 345 343 342 342 340 338 336 335 334 333 332 329 325
168 169 173 177 178 181 182 182 178 167 166 167 159 159 166 170 172 176 176 174 175 169 162 164 165 155 152 140 119 137 158 154 156 163 169 208 199 193 203 164 139 125 111 175 236 21 18 6 17 26 17 9 10 9 1 353 350 349 348 349 350 351 352 351 350 349 350 352 351 350 350 348 346 345 344 342 341 339 338 336 335 334 333 330 326
175 175 180 183 184 191 195 186 177 172 173 171 164 159 161 164 166 166 164 163 170 169 161 166 170 152 139 139 122 126 144 138 151 173 152 179 206 205 208 204 208 209 106 78 134 43 16 355 5 14 17 21 17 4 355 352 351 350 347 348 351 352 352 349 348 349 351 353 353 350 350 349 347 345 344 343 342 342 341 339 337 336 334 331 326
184 184 186 190 195 201 196 180 174 177 177 174 170 166 164 163 162 160 155 149 147 151 148 149 156 148 138 139 130 124 128 110 107 132 107 112 182 211 206 209 236 242 233 33 94 29 351 338 354 15 28 25 13 1 356 355 353 350 346 351 354 353 352 351 348 349 351 353 353 351 349 350 349 347 346 345 344 343 342 342 341 340 338 334 331
186 188 188 190 189 182 172 167 172 177 175 174 174 172 171 167 163 159 152 145 142 142 138 131 132 134 135 139 132 121 121 95 77 83 78 85 108 173 205 200 222 238 220 165 76 24 329 324 2 43 42 19 7 2 358 356 356 353 350 353 354 353 355 355 351 351 350 348 348 348 348 349 350 349 349 347 346 345 344 343 342 341 340 338 334
178 176 176 173 166 162 163 165 171 172 171 172 173 172 172 169 165 161 154 148 145 143 137 130 125 121 121 124 119 109 102 89 72 76 79 74 80 60 353 201 225 228 193 163 81 33 7 36 70 60 31 11 4 0 357 357 358 356 352 353 354 354 356 356 354 354 352 347 345 345 348 351 351 352 351 349 348 346 345 344 343 343 341 338 336
170 171 171 167 163 162 165 166 165 165 165 165 165 165 164 164 163 160 156 151 149 148 141 134 129 121 115 113 113 108 98 94 88 83 82 77 87 89 42 41 279 243 184 170 106 56 56 73 72 37 19 9 2 359 356 358 360 358 354 352 353 355 357 358 357 357 355 349 344 344 349 355 356 356 354 351 350 348 347 345 344 344 342 340 337
172 173 169 166 167 169 169 166 162 159 155 154 154 156 156 157 157 156 153 149 149 149 141 133 131 125 121 119 118 113 101 99 100 91 85 80 75 57 36 55 18 278 189 172 117 78 68 65 46 24 20 10 360 356 355 357 359 359 355 352 353 356 358 360 359 357 355 351 347 347 350 356 0 0 358 354 351 350 349 346 345 345 344 342 338
174 170 165 164 167 169 168 163 157 152 147 147 149 151 154 153 153 151 147 145 145 142 137 133 130 127 128 126 121 115 106 102 101 92 83 78 69 48 28 59 47 55 111 120 83 65 58 52 30 15 16 7 358 355 355 357 358 357 355 353 356 359 360 1 359 356 356 353 351 350 350 357 2 2 1 357 352 351 350 349 347 345 343 342 339
170 167 164 164 165 165 163 157 153 150 148 150 152 153 155 152 149 148 144 144 143 137 134 133 129 128 129 127 122 117 111 106 101 93 84 77 70 59 59 74 59 49 67 89 77 54 35 23 13 10 10 2 355 355 356 357 356 354 353 355 359 1 1 0 358 357 357 355 354 351 349 354 0 3 3 359 356 355 353 352 350 346 343 343 342
169 167 166 166 166 165 162 157 155 154 152 156 157 156 156 152 149 146 142 144 142 136 134 132 129 128 128 128 125 118 117 116 106 96 90 82 72 67 68 76 85 58 21 32 59 51 32 13 2 2 2 357 354 355 355 355 355 352 352 357 1 1 1 360 359 360 359 357 355 350 348 349 356 4 5 1 360 360 357 356 356 353 349 347 345
173 171 169 169 169 166 162 159 157 157 157 160 160 158 157 153 150 146 143 144 141 135 134 131 126 125 124 124 123 118 119 123 114 101 93 85 78 71 64 68 83 101 73 6 341 29 30 12 357 349 350 354 355 352 352 354 354 351 352 359 2 0 360 1 2 3 0 358 353 349 347 344 353 5 6 3 4 4 1 0 359 359 358 355 352
175 173 170 169 169 168 164 160 160 161 161 163 162 160 158 152 148 146 143 144 140 134 133 130 127 126 122 119 117 115 116 119 116 107 98 92 84 73 61 62 72 80 79 59 321 13 15 1 351 344 342 350 353 350 351 354 351 349 354 0 0 359 1 4 6 4 2 358 353 350 348 343 353 6 6 5 7 6 5 4 1 4 6 3 358
174 171 170 170 169 169 166 162 162 164 165 165 163 161 159 153 149 145 142 145 141 135 134 134 133 133 127 119 114 110 110 112 110 104 97 92 87 80 67 58 62 64 56 56 57 339 356 349 342 339 340 346 349 349 351 351 348 349 356 360 359 359 3 5 6 5 2 358 353 353 350 344 356 7 6 6 6 4 5 6 6 8 6 1 357
173 171 171 172 170 170 168 165 166 166 165 166 165 163 161 157 153 148 147 149 145 139 139 137 133 131 126 119 112 106 106 107 104 99 90 80 79 81 78 65 59 49 36 44 3 308 334 346 338 338 344 347 349 351 350 348 346 350 357 358 357 0 4 5 5 4 3 360 356 356 352 347 358 7 5 3 3 2 2 3 5 4 358 355 353
174 174 174 174 173 171 168 168 168 168 167 167 167 166 163 158 155 153 153 153 147 142 141 137 134 133 132 129 124 121 122 115 112 111 95 89 98 89 75 62 53 38 19 25 352 314 325 342 340 342 348 350 350 352 352 347 346 350 356 357 357 2 4 3 2 2 2 0 359 359 355 350 358 3 0 359 360 1 0 359 359 357 352 352 351
177 177 176 176 175 173 171 171 171 170 170 169 169 169 165 159 157 155 155 154 149 145 142 141 141 142 145 144 142 143 145 137 133 137 114 97 109 108 74 42 34 37 17 6 346 312 314 330 339 343 348 352 352 353 353 348 347 350 352 354 357 1 2 1 0 0 0 358 358 359 358 354 355 356 354 353 355 357 359 359 358 356 353 351 351
178 178 178 177 177 176 175 174 174 172 172 173 172 171 167 163 159 155 156 156 152 148 146 145 146 148 149 151 152 151 151 144 142 155 136 96 95 129 95 57 52 44 16 355 338 315 309 322 334 340 346 353 354 354 350 346 348 350 350 353 357 0 2 1 359 359 358 356 355 357 360 358 356 353 348 345 348 350 352 355 355 354 353 351 350
177 178 180 180 179 179 178 177 176 174 174 173 172 170 168 165 160 156 158 160 157 154 153 153 154 156 154 152 153 150 145 141 141 162 154 107 84 137 136 74 50 22 5 355 340 327 319 324 331 340 348 352 352 352 347 346 350 350 349 353 358 0 1 360 358 357 357 358 355 355 359 1 358 356 347 338 340 343 345 347 348 349 351 351 351
178 179 181 181 180 180 179 178 176 176 176 172 169 168 168 165 160 160 164 164 160 159 160 161 161 162 158 152 152 151 149 150 150 161 161 127 82 86 188 178 15 3 7 5 347 338 335 336 339 344 349 349 349 349 349 350 351 350 353 357 358 358 358 358 359 358 357 357 354 352 354 356 356 357 352 339 332 336 340 341 342 344 348 350 351
179 180 180 180 181 180 179 180 178 177 176 172 170 171 168 164 162 166 168 165 163 164 163 163 164 165 161 156 157 159 163 170 175 178 171 150 109 33 250 228 291 346 24 357 346 343 344 344 345 348 348 349 350 348 349 351 351 349 352 355 356 356 355 354 356 358 357 355 353 349 348 347 349 353 354 345 333 332 336 338 338 341 345 350 351
178 180 179 180 181 181 181 180 180 179 176 174 174 174 169 167 168 170 168 164 165 166 164 163 165 167 167 167 170 173 177 186 195 193 178 164 156 147 269 261 270 299 7 352 343 344 345 345 348 349 346 347 349 347 349 352 353 353 352 348 348 352 352 350 349 352 354 353 351 349 345 342 346 349 352 351 343 335 336 337 337 338 343 350 353
179 179 179 180 181 182 182 182 181 181 178 176 178 175 171 171 173 172 168 167 168 167 165 166 169 174 177 179 182 184 187 194 205 203 187 178 180 199 283 284 271 282 335 349 343 343 347 347 348 348 344 342 345 346 348 351 350 351 352 344 338 342 346 347 348 349 350 348 347 347 344 342 345 347 349 351 350 344 340 339 338 337 341 349 354
180 180 180 181 181 181 183 183 183 182 181 180 181 178 174 174 175 172 170 172 172 169 166 168 174 180 186 189 192 195 199 206 214 208 193 191 201 229 323 322 300 327 354 6 354 347 350 350 347 345 340 337 339 339 341 345 343 341 344 343 339 341 342 342 346 350 350 346 343 343 343 343 344 345 347 350 352 351 346 344 342 337 339 349 355
179 179 181 182 182 182 183 183 183 183 183 183 183 181 178 177 175 173 173 174 173 171 170 171 176 185 191 195 200 205 209 212 204 186 183 188 189 155 93 73 57 41 34 28 15 0 356 354 351 347 337 329 332 334 333 337 339 337 340 341 340 342 342 340 342 348 350 346 340 339 341 344 344 343 346 350 353 353 351 348 345 339 338 349 356
179 179 181 183 183 184 185 185 185 185 184 184 183 182 180 179 178 176 176 175 174 176 176 175 180 187 191 197 206 203 196 191 181 165 161 160 146 126 103 70 47 38 31 25 16 4 357 352 346 343 332 321 326 332 329 332 336 335 336 339 340 340 340 336 331 338 346 345 338 335 338 344 345 342 345 352 354 354 354 351 347 341 338 348 356
178 179 183 185 185 186 189 188 186 185 184 184 183 182 181 182 182 180 179 177 178 179 179 180 186 188 190 196 197 185 175 174 171 160 150 145 133 112 76 25 2 356 354 351 349 347 345 342 336 333 326 318 320 327 328 328 330 330 332 338 341 338 334 331 323 326 339 344 338 333 334 341 344 341 344 353 355 354 355 354 351 344 340 348 356
178 180 184 185 185 189 191 189 185 184 183 183 183 182 184 185 183 183 182 180 181 181 180 184 190 190 193 196 184 174 171 174 175 170 164 160 164 279 313 321 320 319 315 313 312 313 317 323 323 324 325 318 315 321 326 325 323 325 328 333 338 336 330 329 325 326 337 343 339 331 330 338 343 341 342 352 354 353 355 356 353 348 343 347 356
179 181 185 186 186 190 191 187 183 182 181 183 185 184 184 183 182 183 183 182 183 184 184 189 194 197 200 197 183 177 181 199 213 212 214 235 256 263 272 285 296 300 299 298 293 288 296 312 311 315 325 323 315 318 325 326 323 323 325 328 333 332 329 330 332 335 343 347 343 333 326 335 343 340 340 350 353 352 355 356 354 351 346 347 354
181 183 186 186 186 189 190 186 183 181 182 185 186 184 180 179 181 183 182 183 186 187 188 192 198 205 205 195 185 183 192 246 253 241 239 247 252 252 259 274 290 297 297 301 297 283 286 305 306 310 321 324 319 319 323 327 329 330 331 332 334 332 330 334 339 342 347 350 349 339 322 333 343 341 339 347 350 351 355 355 352 351 349 348 353
182 184 186 187 188 189 189 187 184 183 184 185 185 183 181 182 183 180 179 184 187 190 194 196 203 211 207 194 190 197 210 233 242 244 244 246 248 248 250 259 279 299 303 305 299 275 280 305 311 313 318 320 320 321 325 332 344 351 348 343 341 339 336 335 337 339 342 348 354 348 326 331 343 342 339 344 347 349 354 354 351 350 349 349 352
182 184 186 187 188 190 189 188 188 185 183 184 187 188 189 189 185 180 179 182 184 189 195 194 196 200 199 197 203 208 216 226 235 244 249 252 254 250 244 246 260 289 300 291 263 254 292 309 310 309 312 317 322 327 337 358 7 1 350 342 342 343 339 334 331 332 335 343 353 351 337 335 343 342 339 343 345 348 352 352 350 349 349 350 351
183 185 187 188 189 191 190 189 191 188 184 184 189 191 191 193 191 186 182 181 182 186 190 186 183 186 195 210 214 210 215 223 227 236 248 257 259 245 234 236 249 268 282 275 265 279 299 305 304 307 314 323 334 343 1 13 7 358 346 341 344 344 340 334 328 328 332 341 351 352 343 339 343 342 339 340 343 348 350 349 349 349 349 349 351
184 185 189 190 189 190 191 192 193 192 187 186 191 194 193 195 198 195 189 184 183 186 187 187 190 195 205 218 221 216 218 220 221 233 247 255 255 240 229 234 247 257 269 283 292 299 306 309 310 318 325 331 344 355 359 358 358 353 345 345 352 351 344 338 335 332 327 338 352 354 345 340 343 344 343 342 337 343 348 347 348 350 350 349 350